Richlands, VA

10:48 AM EDT on October 23, 2017 (GMT -0400)
Tazewell County

Weather History for KJFZ - April, 2013

Change the Weather History Date:

Sunday, April 21, 2013

  Actual Average (KBLF) Record (KBLF)
Temperature  
Mean Temperature 46 °F -  
Max Temperature 57 °F 65 °F 83 °F (1976)
Min Temperature 34 °F 47 °F 30 °F (1983)
Degree Days  
Heating Degree Days 20    
Moisture  
Dew Point 27 °F    
Average Humidity 46    
Maximum Humidity 65    
Minimum Humidity 32    
Precipitation  
Precipitation 0.00 in - - ()
Sea Level Pressure  
Sea Level Pressure 30.36 in    
Wind  
Wind Speed 5 mph (ESE)    
Max Wind Speed 16 mph    
Max Gust Speed 26 mph    
Visibility 10 miles    
Events      
Averages and records for this station are not official NWS values.
T = Trace of Precipitation, MM = Missing Value Source: NWS Daily Summary

Daily Weather History Graph

Daily Weather History Graph

Search for Another Location

Airport or City:

Trip Planner

Search our weather history database for the weather conditions in past years. The results will help you decide how hot, cold, wet, or windy it might be!

Date:

Astronomy

Apr. 21, 2013 Rise Set
Actual Time 6:44 AM EDT 8:07 PM EDT
Civil Twilight 6:17 AM EDT 8:34 PM EDT
Nautical Twilight 5:44 AM EDT 9:07 PM EDT
Astronomical Twilight 5:10 AM EDT 9:41 PM EDT
Moon 3:57 PM EDT (4/21) 3:59 AM EDT (4/21)
Length of Visible Light 14h 17m
Length of Day
13h 23m
Waxing Gibbous, 79% of the Moon is Illuminated
Apr 21
Waxing Gibbous
Apr 25
Full
May 2
Last Quarter
May 9
New
May 18
First Quarter

Hourly Weather History & Observations

Time (EDT) Temp. Windchill Dew Point Humidity Pressure Visibility Wind Dir Wind Speed Gust Speed Precip Events Conditions
12:15 AM 43.2 °F - 20.5 °F 40% 30.30 in 10.0 mi Calm Calm - N/A   Clear
12:35 AM 43.3 °F - 20.3 °F 40% 30.31 in 10.0 mi Calm Calm - N/A   Clear
12:55 AM 43.0 °F - 20.7 °F 41% 30.31 in 10.0 mi Calm Calm - N/A   Clear
1:15 AM 41.5 °F - 21.0 °F 44% 30.31 in 10.0 mi Calm Calm - N/A   Clear
1:35 AM 41.4 °F 39.4 °F 22.3 °F 47% 30.31 in 10.0 mi North 3.5 mph - N/A   Clear
1:55 AM 39.4 °F - 23.5 °F 53% 30.31 in 10.0 mi Calm Calm - N/A   Clear
2:15 AM 39.6 °F - 22.8 °F 51% 30.32 in 10.0 mi Calm Calm - N/A   Clear
2:35 AM 40.1 °F 38.0 °F 22.1 °F 49% 30.32 in 10.0 mi NNE 3.5 mph - N/A   Clear
5:35 AM 35.6 °F 28.6 °F 23.7 °F 62% 30.34 in 10.0 mi ENE 9.2 mph - N/A   Clear
5:55 AM 35.6 °F 28.0 °F 23.9 °F 62% 30.33 in 10.0 mi NE 10.4 mph - N/A   Clear
6:15 AM 34.7 °F 30.6 °F 24.1 °F 65% 30.35 in 10.0 mi East 4.6 mph - N/A   Clear
6:35 AM 34.7 °F 27.5 °F 23.9 °F 65% 30.35 in 10.0 mi NE 9.2 mph - N/A   Clear
7:15 AM 35.2 °F 28.8 °F 23.9 °F 63% 30.37 in 10.0 mi ENE 8.1 mph - N/A   Clear
7:35 AM 35.6 °F 27.5 °F 24.4 °F 64% 30.38 in 10.0 mi NE 11.5 mph - N/A   Clear
7:55 AM 35.8 °F 28.3 °F 24.8 °F 64% 30.38 in 10.0 mi NE 10.4 mph - N/A   Clear
8:15 AM 37.0 °F 32.4 °F 25.5 °F 63% 30.39 in 10.0 mi ENE 5.8 mph - N/A   Clear
8:35 AM 38.8 °F 34.6 °F 26.2 °F 61% 30.39 in 10.0 mi ENE 5.8 mph - N/A   Clear
8:55 AM 40.6 °F 36.7 °F 26.8 °F 58% 30.40 in 10.0 mi ENE 5.8 mph - N/A   Clear
9:15 AM 42.4 °F 39.6 °F 26.8 °F 54% 30.40 in 10.0 mi ENE 4.6 mph - N/A   Clear
9:35 AM 43.9 °F 41.3 °F 27.5 °F 53% 30.41 in 10.0 mi ENE 4.6 mph - N/A   Clear
9:55 AM 45.7 °F 44.4 °F 27.0 °F 48% 30.41 in 10.0 mi East 3.5 mph - N/A   Clear
10:15 AM 47.8 °F - 25.9 °F 42% 30.41 in 10.0 mi SE 10.4 mph - N/A   Clear
10:55 AM 49.6 °F - 26.2 °F 40% 30.42 in 10.0 mi ESE 9.2 mph - N/A   Clear
11:15 AM 50.5 °F - 25.7 °F 38% 30.42 in 10.0 mi SE 11.5 mph 18.4 mph N/A   Clear
11:35 AM 50.9 °F - 25.9 °F 38% 30.42 in 10.0 mi SE 6.9 mph - N/A   Clear
11:55 AM 51.3 °F - 26.2 °F 38% 30.42 in 10.0 mi SE 8.1 mph - N/A   Clear
12:15 PM 52.7 °F - 27.3 °F 38% 30.41 in 10.0 mi SSE 5.8 mph - N/A   Clear
12:35 PM 51.4 °F - 24.6 °F 35% 30.41 in 10.0 mi Calm Calm - N/A   Clear
12:55 PM 52.2 °F - 26.1 °F 36% 30.40 in 10.0 mi SE 6.9 mph - N/A   Clear
1:15 PM 53.1 °F - 26.4 °F 36% 30.40 in 10.0 mi SE 6.9 mph - N/A   Clear
1:35 PM 52.7 °F - 27.9 °F 38% 30.39 in 10.0 mi SW 4.6 mph - N/A   Clear
1:55 PM 53.2 °F - 27.5 °F 37% 30.39 in 10.0 mi South 3.5 mph - N/A   Clear
2:15 PM 54.5 °F - 28.8 °F 37% 30.38 in 10.0 mi South 5.8 mph - N/A   Clear
2:35 PM 54.0 °F - 28.0 °F 37% 30.38 in 10.0 mi West 3.5 mph - N/A   Clear
3:15 PM 55.6 °F - 28.9 °F 36% 30.36 in 10.0 mi SSW 5.8 mph - N/A   Clear
3:35 PM 55.2 °F - 27.9 °F 35% 30.36 in 10.0 mi SSE 5.8 mph - N/A   Clear
3:55 PM 56.3 °F - 28.2 °F 34% 30.36 in 10.0 mi North 4.6 mph - N/A   Clear
4:15 PM 56.3 °F - 28.8 °F 35% 30.35 in 10.0 mi SE 4.6 mph - N/A   Clear
4:35 PM 57.7 °F - 28.9 °F 33% 30.34 in 10.0 mi ESE 4.6 mph - N/A   Clear
4:55 PM 56.3 °F - 27.7 °F 33% 30.33 in 10.0 mi SE 5.8 mph - N/A   Clear
5:15 PM 56.3 °F - 26.4 °F 32% 30.33 in 10.0 mi SE 6.9 mph - N/A   Clear
5:35 PM 56.5 °F - 27.5 °F 33% 30.33 in 10.0 mi East 3.5 mph - N/A   Clear
5:55 PM 56.8 °F - 29.3 °F 35% 30.33 in 10.0 mi SSE 5.8 mph - N/A   Clear
6:15 PM 56.5 °F - 28.4 °F 34% 30.33 in 10.0 mi SSE 9.2 mph - N/A   Clear
6:35 PM 56.1 °F - 29.3 °F 36% 30.33 in 10.0 mi SE 10.4 mph 18.4 mph N/A   Clear
6:55 PM 55.8 °F - 29.7 °F 37% 30.33 in 10.0 mi ESE 8.1 mph - N/A   Clear
7:15 PM 55.0 °F - 29.3 °F 37% 30.33 in 10.0 mi SE 6.9 mph - N/A   Clear
7:35 PM 54.0 °F - 29.3 °F 39% 30.33 in 10.0 mi SE 6.9 mph - N/A   Clear
7:55 PM 53.1 °F - 29.8 °F 41% 30.33 in 10.0 mi ESE 8.1 mph - N/A   Clear
8:15 PM 52.0 °F - 30.4 °F 44% 30.34 in 10.0 mi SE 5.8 mph - N/A   Clear
8:35 PM 50.9 °F - 30.4 °F 45% 30.35 in 10.0 mi SE 8.1 mph - N/A   Clear
8:55 PM 50.5 °F - 30.6 °F 46% 30.35 in 10.0 mi ESE 9.2 mph 17.3 mph N/A   Clear
9:15 PM 50.0 °F - 30.7 °F 48% 30.36 in 10.0 mi SE 11.5 mph 19.6 mph N/A   Clear
9:35 PM 49.5 °F - 30.9 °F 49% 30.36 in 10.0 mi SE 10.4 mph 19.6 mph N/A   Clear
9:55 PM 49.1 °F - 31.1 °F 50% 30.38 in 10.0 mi SE 11.5 mph 18.4 mph N/A   Clear
10:15 PM 48.2 °F - 31.6 °F 53% 30.38 in 10.0 mi SE 11.5 mph 17.3 mph N/A   Clear
10:35 PM 47.5 °F - 31.8 °F 55% 30.38 in 10.0 mi SE 16.1 mph 24.2 mph N/A   Clear
10:55 PM 47.3 °F - 31.6 °F 55% 30.38 in 10.0 mi SE 16.1 mph 21.9 mph N/A   Clear
11:15 PM 46.9 °F - 31.5 °F 55% 30.38 in 10.0 mi SE 11.5 mph 20.7 mph N/A   Clear
11:35 PM 46.4 °F 41.5 °F 31.5 °F 56% 30.38 in 10.0 mi SE 10.4 mph 26.5 mph N/A   Clear
11:55 PM 46.0 °F 39.6 °F 31.1 °F 56% 30.37 in 10.0 mi SE 15.0 mph 23.0 mph N/A   Clear